GEFSGL_con_probscp_186.txt.gz
Probability
39 37 35 35 33 27 20 17 16 16 14 14 13 14 14 13 11 10 8 8 9 9 9 10 11 13 14 15 18 20 18 14 9 6 5 8 13 15 13 12 11 10 9
40 39 37 36 33 26 21 18 17 16 15 14 15 16 14 12 11 9 8 7 8 8 7 7 8 10 13 17 21 20 18 15 12 9 9 11 15 17 16 14 11 9 8
38 36 34 32 30 25 20 17 16 17 16 15 16 17 15 12 11 9 8 8 8 7 6 5 5 6 9 14 18 18 17 16 14 12 11 14 16 17 16 14 12 9 8
33 31 28 25 23 20 17 15 15 16 16 16 16 15 14 13 11 10 9 9 9 8 6 5 4 3 4 6 9 13 15 15 13 10 10 12 14 14 13 10 10 10 9
33 29 24 20 17 16 14 13 14 15 16 15 14 13 12 11 10 8 8 9 9 8 6 4 3 2 1 1 3 6 9 11 10 8 8 8 9 9 9 7 6 8 9
33 28 21 18 17 15 13 12 14 15 16 15 14 14 12 10 7 5 5 8 8 7 5 4 3 2 1 0 1 2 3 5 7 6 5 4 4 5 5 5 4 5 6
30 25 20 17 16 15 14 13 13 14 15 16 15 15 12 7 4 2 3 6 7 5 4 4 4 3 2 2 2 1 1 1 2 3 2 1 1 1 2 3 3 3 3
25 22 19 18 17 15 13 13 12 13 15 16 15 14 10 6 3 1 1 4 5 4 4 4 4 4 3 3 3 2 1 1 0 0 0 0 0 0 0 1 1 1 2
21 21 19 19 17 15 13 12 12 13 14 13 12 11 9 6 3 1 1 2 3 3 4 3 3 3 2 1 2 3 3 2 1 0 0 0 0 0 0 0 0 0 1
19 19 19 18 17 15 13 12 12 12 11 10 9 8 6 4 3 1 1 3 3 3 3 3 1 1 0 0 1 2 3 2 1 0 0 0 0 0 0 0 0 0 0
17 17 17 16 15 13 12 11 11 9 8 7 7 6 4 3 3 1 1 2 3 3 3 2 1 0 0 0 0 1 1 1 1 0 0 0 1 1 1 1 1 1 0
16 16 16 16 14 12 10 9 8 7 5 5 5 5 3 2 2 1 1 1 2 3 3 2 1 0 0 0 0 0 0 0 0 0 0 1 2 2 2 2 2 1 1
14 14 14 14 13 10 7 5 4 3 2 2 3 3 1 1 1 1 0 0 1 2 3 2 1 0 0 0 0 0 0 0 0 0 0 1 2 2 2 2 1 1 0
11 11 11 11 10 8 5 2 1 1 0 0 1 1 0 0 0 0 0 0 0 1 2 1 0 0 0 0 0 0 0 0 0 0 0 1 1 1 1 1 0 0 0
10 10 9 9 7 5 3 1 0 1 0 0 0 0 0 0 0 0 0 0 0 0 0 0 0 0 0 0 0 0 0 0 0 0 0 0 0 0 0 0 0 0 0
9 9 8 7 5 3 1 0 0 0 0 0 0 0 0 0 0 0 0 0 0 0 0 0 0 0 0 0 0 0 0 0 0 0 0 0 0 0 0 0 0 0 0
6 6 6 4 3 1 0 0 0 0 0 0 0 0 0 0 0 0 0 0 0 0 0 0 0 0 0 0 0 0 0 0 0 0 0 0 0 0 0 0 0 0 0
4 4 4 2 1 0 0 0 0 0 0 0 0 0 0 0 0 0 0 0 0 0 0 0 0 0 0 0 0 0 0 0 0 0 0 0 0 0 0 0 0 0 0
1 2 2 1 0 0 0 0 0 0 0 0 0 0 0 0 0 0 0 0 0 0 0 0 0 0 0 0 0 0 0 0 0 0 0 0 0 0 0 0 0 0 0
0 1 1 0 0 0 0 0 0 0 0 0 0 0 0 0 0 0 0 0 0 0 0 0 0 0 0 0 0 0 0 0 0 0 0 0 0 0 0 0 0 0 0
0 0 0 0 0 0 0 0 0 0 0 0 0 0 0 0 0 0 0 0 0 0 0 0 0 0 0 0 0 0 0 0 0 0 0 0 0 0 0 0 0 0 0
0 0 0 0 0 0 0 0 0 0 0 0 0 0 0 0 0 0 0 0 0 0 0 0 0 0 0 0 0 0 0 0 0 0 0 0 0 0 0 0 0 0 0
0 0 0 0 0 0 0 0 0 0 0 0 0 0 0 0 0 0 0 0 0 0 0 0 0 0 0 0 0 0 0 0 0 0 0 0 0 0 0 0 0 0 0
0 0 0 0 0 0 0 0 0 0 0 0 0 0 0 0 0 0 0 0 0 0 0 0 0 0 0 0 0 0 0 0 0 0 0 0 0 0 0 0 0 0 0
0 0 0 0 0 0 0 0 0 0 0 0 0 0 0 0 0 0 0 0 0 0 0 0 0 0 0 0 0 0 0 0 0 0 0 0 0 0 0 0 0 0 0
0 0 0 0 0 0 0 0 0 0 0 0 0 0 0 0 0 0 0 0 0 0 0 0 0 0 0 0 0 0 0 0 0 0 0 0 0 0 0 0 0 0 0

GEFSGL_con_probscp_192.txt.gz
Probability
65 63 61 60 59 57 54 50 46 42 39 35 31 27 24 21 19 17 16 15 13 9 7 9 11 12 10 10 11 11 8 5 2 2 2 4 9 11 10 9 9 6 4
63 63 62 59 58 56 52 50 47 44 39 33 29 25 22 20 18 17 16 14 12 10 8 9 11 11 10 9 9 8 6 4 3 1 1 3 7 8 8 8 6 4 2
61 62 61 58 55 52 49 48 47 43 37 32 27 23 20 18 17 17 16 15 14 13 12 12 12 11 11 10 9 6 4 2 2 1 0 1 2 3 4 4 3 1 0
60 61 61 58 52 47 44 44 42 37 32 28 25 20 18 16 16 16 17 17 18 17 15 14 12 10 10 10 9 7 4 3 3 2 1 1 1 2 2 2 1 0 0
59 60 59 54 45 40 38 36 32 26 22 21 19 16 14 13 12 13 15 18 20 19 15 12 9 6 6 5 5 5 5 5 4 3 3 3 3 3 3 3 1 0 0
56 55 52 45 38 34 32 28 23 19 17 16 16 15 12 9 7 8 11 15 18 16 12 8 4 2 1 1 1 1 2 3 3 4 5 6 5 3 3 2 1 0 0
48 45 41 38 34 32 28 23 20 19 18 18 17 16 12 7 4 3 6 11 15 13 8 5 3 1 1 2 1 0 0 1 1 3 4 5 4 2 1 1 0 0 0
37 35 33 32 31 29 25 22 21 21 20 19 18 16 13 8 3 1 4 9 12 10 6 4 3 2 2 2 2 1 0 0 0 1 2 3 2 1 0 0 0 0 0
29 28 28 27 27 25 22 20 20 20 19 18 17 16 13 8 4 2 4 8 8 6 5 4 3 3 3 2 2 1 0 0 0 0 0 1 1 0 0 0 0 0 0
25 24 24 24 24 23 21 20 19 17 16 16 16 14 12 7 4 3 4 6 6 4 3 3 3 3 2 1 1 2 1 0 0 0 0 0 0 0 0 0 0 0 0
23 22 22 22 22 22 21 20 18 16 15 14 14 12 10 6 4 3 3 4 4 3 3 3 3 3 1 0 1 2 1 0 0 0 0 0 0 0 0 0 0 0 0
22 21 21 20 20 20 20 19 17 15 13 12 12 10 8 6 4 3 2 2 2 3 3 3 3 2 1 0 0 1 1 0 0 0 0 0 0 0 0 0 0 0 0
22 21 19 18 18 18 18 16 14 13 12 11 9 7 5 5 4 2 1 0 1 1 2 2 1 1 0 0 0 0 0 0 0 0 0 0 0 0 0 0 0 0 0
18 16 14 14 15 15 13 12 10 10 10 8 5 3 2 2 2 0 0 0 0 0 1 1 0 0 0 0 0 0 0 0 0 0 0 0 0 0 0 0 0 0 0
12 10 9 10 11 11 9 7 6 6 5 4 2 0 0 0 0 0 0 0 0 0 0 0 0 1 0 0 0 0 0 0 0 0 0 0 0 0 0 0 0 0 0
7 7 7 9 10 8 6 4 3 3 1 1 0 0 0 0 0 0 0 0 0 0 0 0 0 0 0 0 0 0 0 0 0 0 0 0 0 0 0 0 0 0 0
6 6 7 8 8 7 4 3 1 1 0 0 0 0 0 0 0 0 0 0 0 0 0 0 0 0 0 0 0 0 0 0 0 0 0 0 0 0 0 0 0 0 0
5 5 7 8 8 6 4 2 1 0 0 0 0 0 0 0 0 0 0 0 0 0 0 0 0 0 0 0 0 0 0 0 0 0 0 0 0 0 0 0 0 0 0
4 4 6 8 8 6 3 1 0 0 0 0 0 0 0 0 0 0 0 0 0 0 0 0 0 0 0 0 0 0 0 0 0 0 0 0 0 0 0 0 0 0 0
3 3 5 7 7 5 2 0 0 0 0 0 0 0 0 0 0 0 0 0 0 0 0 0 0 0 0 0 0 0 0 0 0 0 0 0 0 0 0 0 0 0 0
2 3 3 4 5 4 1 0 0 0 0 0 0 0 0 0 0 0 0 0 0 0 0 0 0 0 0 0 0 0 0 0 0 0 0 0 0 0 0 0 0 0 0
1 1 2 1 1 1 0 0 0 0 0 0 0 0 0 0 0 0 0 0 0 0 0 0 0 0 0 0 0 0 0 0 0 0 0 0 0 0 0 0 0 0 0
0 0 0 0 0 0 0 0 0 0 0 0 0 0 0 0 0 0 0 0 0 0 0 0 0 0 0 0 0 0 0 0 0 0 0 0 0 0 0 0 0 0 0
0 0 0 0 0 0 0 0 0 0 0 0 0 0 0 0 0 0 0 0 0 0 0 0 0 0 0 0 0 0 0 0 0 0 0 0 0 0 0 0 0 0 0
0 0 0 0 0 0 0 0 0 0 0 0 0 0 0 0 0 0 0 0 0 0 0 0 0 0 0 0 0 0 0 0 0 0 0 0 0 0 0 0 0 0 0
0 0 0 0 0 0 0 0 0 0 0 0 0 0 0 0 0 0 0 0 0 0 0 0 0 0 0 0 0 0 0 0 0 0 0 0 0 0 0 0 0 0 0

GEFSGL_con_probscp_198.txt.gz
Probability
35 31 26 23 20 17 14 13 9 4 1 0 1 1 2 3 3 3 4 4 4 3 3 3 2 1 0 0 0 0 0 0 0 0 0 0 0 0 0 0 0 0 0
37 34 30 26 22 17 14 12 10 6 3 2 2 2 3 3 4 4 4 4 3 3 3 3 3 2 1 0 0 0 0 0 0 0 0 0 0 0 0 0 0 0 0
43 40 35 30 24 18 14 11 10 8 6 4 3 3 3 3 4 4 4 3 3 3 3 3 3 3 1 1 0 0 0 0 0 0 0 0 0 0 0 0 0 0 0
45 41 36 30 25 21 16 11 9 8 7 5 3 3 2 3 4 4 3 3 3 3 3 3 3 3 3 2 1 0 0 0 0 0 0 0 0 0 0 0 0 0 0
41 38 34 30 26 23 18 11 8 7 6 5 3 3 3 3 3 3 3 3 3 3 3 3 3 3 3 2 1 0 0 0 0 0 0 0 0 0 0 0 0 0 0
37 34 30 27 26 23 17 11 8 6 4 4 4 4 4 4 3 3 3 3 3 3 3 3 3 3 2 1 0 0 0 0 0 0 0 0 0 0 0 0 0 0 0
31 27 23 22 21 19 14 10 8 6 4 4 5 6 6 5 4 3 2 3 3 3 3 3 3 2 2 2 1 0 0 0 0 0 0 0 0 0 0 0 0 0 0
21 18 17 16 15 13 12 10 8 7 7 6 6 6 6 6 4 2 2 2 3 3 3 3 3 3 3 3 2 1 0 0 0 0 0 0 0 0 0 0 0 0 0
13 12 12 13 12 11 10 9 9 9 8 7 6 6 6 6 4 2 1 2 3 3 3 3 3 3 3 3 3 2 2 2 1 0 0 0 0 0 0 0 0 0 0
12 12 13 13 12 10 9 9 9 9 8 7 6 6 6 5 3 2 1 2 3 3 3 3 3 3 3 2 3 3 3 2 1 0 0 0 0 0 0 0 0 0 0
14 14 14 14 13 10 9 9 8 8 7 7 6 6 5 4 3 2 1 2 2 2 2 2 2 2 1 1 1 2 2 1 1 0 0 0 0 0 0 0 0 0 0
13 13 13 13 11 10 9 8 7 6 6 6 6 6 4 3 2 2 1 1 1 1 1 1 1 1 0 0 0 1 1 0 0 0 0 0 0 0 0 0 0 0 0
11 10 10 10 9 7 6 5 4 4 4 5 6 4 2 1 1 1 0 0 0 0 0 0 0 0 0 0 0 0 0 0 0 0 0 0 0 0 0 0 0 0 0
8 8 7 7 6 5 4 3 3 3 3 4 4 3 1 0 0 0 0 0 0 0 0 0 0 0 0 0 0 0 0 0 0 0 0 0 0 0 0 0 0 0 0
6 6 6 6 5 4 3 3 3 3 3 3 3 2 1 0 0 0 0 0 0 0 0 0 0 0 0 0 0 0 0 0 0 0 0 0 0 0 0 0 0 0 0
6 6 6 5 4 3 3 3 3 3 3 2 2 2 1 0 0 0 0 0 0 0 0 0 0 0 0 0 0 0 0 0 0 0 0 0 0 0 0 0 0 0 0
6 6 5 3 3 3 3 3 3 3 2 1 1 1 0 0 0 0 0 0 0 0 0 0 0 0 0 0 0 0 0 0 0 0 0 0 0 0 0 0 0 0 0
4 4 3 2 2 3 3 3 3 3 2 0 0 0 0 0 0 0 0 0 0 0 0 0 0 0 0 0 0 0 0 0 0 0 0 0 0 0 0 0 0 0 0
3 3 1 0 1 1 3 3 3 2 1 0 0 0 0 0 0 0 0 0 0 0 0 0 0 0 0 0 0 0 0 0 0 0 0 0 0 0 0 0 0 0 0
3 2 1 0 0 1 2 3 3 1 0 0 0 0 0 0 0 0 0 0 0 0 0 0 0 0 0 0 0 0 0 0 0 0 0 0 0 0 0 0 0 0 0
3 2 1 0 0 0 1 2 2 1 0 0 0 0 0 0 0 0 0 0 0 0 0 0 0 0 0 0 0 0 0 0 0 0 0 0 0 0 0 0 0 0 0
3 2 1 0 0 0 0 1 1 0 0 0 0 0 0 0 0 0 0 0 0 0 0 0 0 0 0 0 0 0 0 0 0 0 0 0 0 0 0 0 0 0 0
3 2 1 0 0 0 0 0 0 0 0 0 0 0 0 0 0 0 0 0 0 0 0 0 0 0 0 0 0 0 0 0 0 0 0 0 0 0 0 0 0 0 0
2 2 1 0 0 0 0 0 0 0 0 0 0 0 0 0 0 0 0 0 0 0 0 0 0 0 0 0 0 0 0 0 0 0 0 0 0 0 0 0 0 0 0
1 1 1 0 0 0 0 0 0 0 0 0 0 0 0 0 0 0 0 0 0 0 0 0 0 0 0 0 0 0 0 0 0 0 0 0 0 0 0 0 0 0 0
0 0 0 0 0 0 0 0 0 0 0 0 0 0 0 0 0 0 0 0 0 0 0 0 0 0 0 0 0 0 0 0 0 0 0 0 0 0 0 0 0 0 0

GEFSGL_con_probscp_204.txt.gz
Probability
22 22 23 23 21 18 16 14 11 7 4 1 0 1 2 3 3 2 1 1 1 1 0 0 0 0 0 0 0 0 0 0 0 0 0 0 0 0 0 0 0 0 0
22 21 21 21 20 17 13 11 10 8 5 2 1 0 1 3 3 1 0 0 0 0 0 1 1 1 1 1 1 0 0 0 0 0 0 0 0 0 0 0 0 0 0
21 20 20 21 20 17 12 10 10 9 7 4 2 1 1 3 3 1 0 1 1 1 1 2 2 2 2 2 2 1 1 0 0 0 0 0 0 0 0 0 0 0 0
21 22 23 24 23 19 14 12 10 8 7 5 3 2 1 2 2 1 1 2 2 2 2 3 3 3 3 3 3 3 2 1 0 0 0 0 0 0 0 0 0 0 0
25 25 24 24 22 19 15 12 9 8 6 5 3 2 1 1 1 1 2 3 3 3 3 3 3 3 3 3 2 3 3 2 1 0 0 0 0 0 0 0 0 0 0
24 24 22 20 18 16 13 11 9 7 6 4 3 3 2 2 2 1 2 3 3 3 3 3 3 3 3 1 1 1 2 2 1 1 0 0 0 0 0 0 0 0 0
19 19 17 16 16 15 13 11 9 7 6 4 3 3 3 3 3 2 2 3 3 3 3 3 3 2 2 1 1 1 1 2 2 2 1 1 0 0 0 0 0 0 0
16 15 14 15 15 14 12 10 8 7 6 5 4 3 3 3 3 2 2 3 3 3 3 2 2 1 1 2 2 2 2 2 2 2 2 1 0 0 0 0 0 0 0
16 15 13 14 14 13 11 8 7 6 5 4 3 3 2 2 2 1 2 3 3 3 2 2 1 1 1 1 3 3 3 3 2 2 1 1 0 0 0 0 0 0 0
15 14 13 13 13 12 9 7 6 5 4 3 2 1 1 1 1 0 1 4 4 3 3 2 1 1 1 1 2 2 2 2 2 2 1 1 1 0 0 0 0 0 0
12 12 12 12 11 9 8 7 6 5 4 3 2 1 1 1 1 1 2 3 4 3 3 2 1 1 0 0 1 1 1 1 1 1 1 2 2 1 0 0 0 0 0
9 11 11 10 9 8 6 6 6 5 4 3 2 2 2 2 2 2 2 2 2 2 2 1 1 0 0 0 0 0 0 0 0 0 1 1 2 2 1 0 0 0 0
9 10 10 9 8 7 6 5 4 4 3 3 3 3 3 3 1 1 1 0 1 1 1 0 0 0 0 0 0 0 0 0 0 0 0 0 1 1 1 0 0 0 0
9 9 9 9 8 7 6 4 3 3 3 3 3 3 3 3 1 0 0 0 0 0 0 0 0 0 0 0 0 0 0 0 0 0 0 0 0 0 0 0 0 0 0
6 6 7 7 7 6 5 4 3 3 3 3 3 3 3 3 2 0 0 0 0 0 0 0 0 0 0 0 0 0 0 0 0 0 0 0 0 0 0 0 0 0 0
4 4 4 5 6 6 5 4 3 3 3 3 3 3 3 2 1 0 0 0 0 0 0 0 0 0 0 0 0 0 0 0 0 0 0 0 0 0 0 0 0 0 0
3 3 3 4 5 5 5 4 3 3 3 3 2 2 2 1 0 0 0 0 0 0 0 0 0 0 0 0 0 0 0 0 0 0 0 0 0 0 0 0 0 0 0
3 3 3 3 4 3 3 3 3 3 3 3 1 0 0 0 0 0 0 0 0 0 0 0 0 0 0 0 0 0 0 0 0 0 0 0 0 0 0 0 0 0 0
3 3 3 3 2 1 1 1 2 3 3 3 1 0 0 0 0 0 0 0 0 0 0 0 0 0 0 0 0 0 0 0 0 0 0 0 0 0 0 0 0 0 0
3 3 3 2 1 0 0 0 1 2 3 3 2 1 0 0 0 0 0 0 0 0 0 0 0 0 0 0 0 0 0 0 0 0 0 0 0 0 0 0 0 0 0
3 3 1 1 0 0 0 0 0 1 1 2 2 1 0 0 0 0 0 0 0 0 0 0 0 0 0 0 0 0 0 0 0 0 0 0 0 0 0 0 0 0 0
3 2 1 0 0 0 0 0 0 0 0 1 1 0 0 0 0 0 0 0 0 0 0 0 0 0 0 0 0 0 0 0 0 0 0 0 0 0 0 0 0 0 0
2 1 0 0 0 0 0 0 0 0 0 0 0 0 0 0 0 0 0 0 0 0 0 0 0 0 0 0 0 0 0 0 0 0 0 0 0 0 0 0 0 0 0
1 0 0 0 0 0 0 0 0 0 0 0 0 0 0 0 0 0 0 0 0 0 0 0 0 0 0 0 0 0 0 0 0 0 0 0 0 0 0 0 0 0 0
0 0 0 0 0 0 0 0 0 0 0 0 0 0 0 0 0 0 0 0 0 0 0 0 0 0 0 0 0 0 0 0 0 0 0 0 0 0 0 0 0 0 0
0 0 0 0 0 0 0 0 0 0 0 0 0 0 0 0 0 0 0 0 0 0 0 0 0 0 0 0 0 0 0 0 0 0 0 0 0 0 0 0 0 0 0

GEFSGL_con_probscp_210.txt.gz
Probability
31 28 22 21 23 24 23 22 20 22 25 25 24 23 19 16 14 13 11 11 13 13 9 5 5 5 6 9 10 10 10 9 6 3 2 4 4 4 3 3 4 4 5
30 27 24 24 26 26 25 23 22 24 26 27 26 24 20 16 15 13 11 10 10 10 9 7 5 6 9 11 11 10 9 8 7 4 3 4 3 2 2 1 1 2 3
30 30 28 28 29 29 27 25 26 26 27 27 25 22 18 15 13 13 12 12 10 8 8 9 7 8 12 14 13 11 9 8 9 6 3 3 2 1 1 0 0 0 1
33 33 32 30 29 29 27 26 26 26 26 26 23 18 14 12 11 12 14 13 12 10 10 11 10 10 12 13 12 12 10 9 9 7 3 1 1 1 0 0 0 0 0
34 33 30 28 27 25 25 24 23 23 24 24 21 17 14 11 9 9 11 12 11 11 12 12 12 10 9 9 8 9 9 8 8 6 3 1 0 0 0 0 0 0 0
34 31 28 26 24 23 23 22 21 20 21 20 18 16 14 10 7 6 6 7 9 11 12 12 11 9 6 5 4 5 5 5 5 5 3 1 0 0 0 0 0 0 0
32 30 27 25 23 23 23 21 19 19 18 16 15 15 13 9 6 3 3 5 8 10 11 11 9 6 5 4 3 2 1 2 2 2 2 1 0 0 0 0 1 1 0
30 29 27 24 22 23 22 20 18 17 15 13 13 12 11 9 6 2 3 6 8 9 9 9 8 5 3 3 2 1 0 0 0 0 0 0 0 0 0 1 2 2 1
29 28 25 22 21 21 20 17 15 14 13 11 11 10 10 9 6 3 3 7 8 8 7 7 6 4 2 1 1 1 1 0 0 0 0 0 0 0 1 2 3 3 3
27 26 23 20 19 18 17 15 13 11 11 10 10 10 10 9 6 3 3 7 8 6 6 6 5 3 1 0 2 3 2 1 1 1 1 1 1 1 1 3 3 3 3
23 22 20 17 16 16 15 13 12 10 10 10 10 9 9 8 6 3 3 5 6 6 6 5 4 2 1 0 1 3 2 1 1 2 2 2 2 2 2 3 3 3 3
20 18 16 13 12 13 13 12 11 10 10 10 9 9 8 7 6 3 2 2 4 6 6 5 3 1 0 0 0 1 1 0 1 1 1 1 1 1 1 2 3 3 3
17 15 12 11 10 11 12 12 11 10 10 9 9 7 7 6 6 3 1 0 2 4 5 4 2 0 0 0 0 0 0 0 0 0 0 0 0 0 0 1 1 2 2
14 12 10 9 9 10 11 11 10 9 9 8 7 7 6 6 5 4 2 1 1 2 2 1 0 0 0 0 0 0 0 0 0 0 0 0 0 0 0 0 0 1 1
11 10 9 8 8 8 8 8 8 7 7 6 6 6 5 4 4 3 3 2 2 1 0 0 0 0 0 0 0 0 0 0 0 0 0 0 0 0 0 0 0 0 0
10 9 7 7 7 7 6 6 5 5 4 3 3 3 3 3 3 2 2 2 1 1 0 0 0 0 0 0 0 0 0 0 0 0 0 0 0 0 0 0 0 0 0
10 8 6 6 6 6 6 6 6 5 4 2 1 1 1 1 2 1 0 0 0 0 0 0 0 0 0 0 0 0 0 0 0 0 0 0 0 0 0 0 0 0 0
9 7 5 4 4 4 5 6 6 6 4 3 2 1 0 0 0 0 0 1 1 1 1 0 0 0 0 0 0 0 0 0 0 0 0 0 0 0 0 0 0 0 0
6 5 3 3 3 3 4 5 6 6 4 3 3 2 1 0 0 0 1 2 2 1 1 1 1 0 0 0 0 0 0 0 0 0 0 0 0 0 0 0 0 0 0
6 4 3 3 3 3 3 4 4 5 4 3 3 3 2 2 2 1 1 2 3 3 2 2 2 1 0 0 0 0 0 0 0 0 0 0 0 0 0 0 0 0 0
6 5 4 3 3 3 3 3 4 4 4 3 3 3 3 3 3 2 1 2 3 3 3 3 3 1 0 0 0 0 0 0 0 0 0 0 0 0 0 0 0 0 0
6 6 4 3 3 3 3 3 4 4 3 2 2 2 2 3 3 3 3 3 3 3 3 3 3 2 0 0 0 0 0 0 0 0 0 0 0 0 0 0 0 0 0
6 5 4 3 2 2 2 2 3 2 1 1 1 1 1 2 3 3 3 3 3 3 3 3 2 1 0 0 0 0 0 0 0 0 0 0 0 0 0 0 0 0 0
4 4 3 1 1 0 1 1 1 1 0 0 0 0 0 1 1 2 3 3 3 2 2 1 1 0 0 0 0 0 0 0 0 0 0 0 0 0 0 0 0 0 0
3 3 2 1 0 0 0 0 0 0 0 0 0 0 0 0 0 1 1 2 1 1 1 0 0 0 0 0 0 0 0 0 0 0 0 0 0 0 0 0 0 0 0
3 3 2 1 0 0 0 0 0 0 0 0 0 0 0 0 0 0 0 1 0 0 0 0 0 0 0 0 0 0 0 0 0 0 0 0 0 0 0 0 0 0 0